Weather History for Ravenna, OH

Change the Weather History Date:

Saturday, December 28, 2013

  Actual Average (KCAK) Record (KCAK)
Temperature  
Mean Temperature 43 °F 27 °F  
Max Temperature 50 °F 34 °F 66 °F (1982)
Min Temperature 36 °F 21 °F -5 °F (1924)
Degree Days  
Heating Degree Days 22 38  
Month to date heating degree days 959  
Since 1 July heating degree days 2218  
Cooling Degree Days 0 0  
Month to date cooling degree days 0  
Year to date cooling degree days 652  
Moisture  
Dew Point 28 °F    
Average Humidity 58    
Maximum Humidity 67    
Minimum Humidity 43    
Precipitation  
Precipitation 0.00 in 0.09 in 0.87 in (1988)
Month to date precipitation 2.58  
Year to date precipitation 39.36  
Snow  
Snow 0.00 in 0.40 in - ()
Month to date snowfall 9.1  
Since 1 July snowfall 12.5  
Snow Depth -    
Sea Level Pressure  
Sea Level Pressure 30.10 in    
Wind  
Wind Speed 7 mph (SW)    
Max Wind Speed 12 mph    
Max Gust Speed 22 mph    
Visibility 10 miles    
Events      
T = Trace of Precipitation, MM = Missing Value Source: NWS Daily Summary

Daily Weather History Graph

Daily Weather History Graph

Search for Another Location

Airport:

Trip Planner

Search our weather history database for the weather conditions in past years. The results will help you decide how hot, cold, wet, or windy it might be!

Date:

Astronomy

Dec. 28, 2013 Rise Set
Actual Time 7:49 AM EST 5:03 PM EST
Civil Twilight 7:18 AM EST 5:34 PM EST
Nautical Twilight 6:43 AM EST 6:09 PM EST
Astronomical Twilight 6:10 AM EST 6:43 PM EST
Moon 3:23 AM EST (12/28) 1:54 PM EST (12/28)
Length of Visible Light 10h 16m
Length of Day
9h 13m
Waning Crescent, 19% of the Moon is Illuminated
Dec 28
Waning Crescent
Jan 1
New
Jan 7
First Quarter
Jan 15
Full
Jan 24
Last Quarter

Hourly Weather History & Observations

Time (EST) Temp. Windchill Dew Point Humidity Pressure Visibility Wind Dir Wind Speed Gust Speed Precip Events Conditions
12:14 AM 37.2 °F 31.9 °F 26.4 °F 65% 30.17 in 10.0 mi SW 6.9 mph - N/A   Clear
12:34 AM 37.4 °F 31.4 °F 26.4 °F 65% 30.16 in 10.0 mi SW 8.1 mph - N/A   Clear
12:55 AM 37.4 °F 31.4 °F 26.4 °F 65% 30.15 in 10.0 mi SW 8.1 mph - N/A   Clear
1:15 AM 37.0 °F 31.6 °F 26.6 °F 66% 30.15 in 10.0 mi SW 6.9 mph - N/A   Clear
1:34 AM 36.9 °F 30.7 °F 26.6 °F 66% 30.15 in 10.0 mi SW 8.1 mph - N/A   Scattered Clouds
1:55 AM 37.4 °F 30.8 °F 26.6 °F 65% 30.14 in 10.0 mi SW 9.2 mph - N/A   Mostly Cloudy
2:15 AM 38.3 °F 31.9 °F 26.6 °F 63% 30.14 in 10.0 mi SW 9.2 mph 18.4 mph N/A   Overcast
2:34 AM 38.3 °F 33.2 °F 26.6 °F 63% 30.14 in 10.0 mi SW 6.9 mph 16.1 mph N/A   Overcast
2:54 AM 38.3 °F 31.9 °F 26.8 °F 63% 30.13 in 10.0 mi SW 9.2 mph 18.4 mph N/A   Overcast
3:15 AM 38.7 °F 33.6 °F 27.0 °F 63% 30.13 in 10.0 mi SW 6.9 mph 18.4 mph N/A   Overcast
3:34 AM 39.4 °F 33.2 °F 26.6 °F 60% 30.13 in 10.0 mi WSW 9.2 mph 21.9 mph N/A   Overcast
3:54 AM 39.2 °F 32.5 °F 26.8 °F 61% 30.13 in 10.0 mi WSW 10.4 mph 17.3 mph N/A   Overcast
4:15 AM 38.3 °F 32.5 °F 27.0 °F 64% 30.12 in 10.0 mi SW 8.1 mph - N/A   Overcast
4:34 AM 38.1 °F 31.7 °F 27.0 °F 64% 30.12 in 10.0 mi SW 9.2 mph 17.3 mph N/A   Overcast
4:54 AM 37.9 °F 31.5 °F 27.0 °F 65% 30.12 in 10.0 mi SW 9.2 mph - N/A   Overcast
5:15 AM 37.6 °F 31.6 °F 26.6 °F 65% 30.12 in 10.0 mi SW 8.1 mph - N/A   Mostly Cloudy
5:34 AM 37.6 °F 31.0 °F 26.6 °F 65% 30.12 in 10.0 mi SW 9.2 mph - N/A   Scattered Clouds
5:55 AM 37.4 °F 30.3 °F 26.6 °F 65% 30.12 in 10.0 mi SW 10.4 mph 17.3 mph N/A   Clear
6:15 AM 37.4 °F 32.1 °F 26.4 °F 65% 30.13 in 10.0 mi SW 6.9 mph 17.3 mph N/A   Clear
6:34 AM 37.0 °F 32.4 °F 26.4 °F 65% 30.13 in 10.0 mi SW 5.8 mph - N/A   Clear
6:55 AM 36.9 °F 31.4 °F 26.4 °F 66% 30.14 in 10.0 mi SW 6.9 mph - N/A   Clear
7:15 AM 36.5 °F 31.8 °F 26.4 °F 67% 30.15 in 10.0 mi SW 5.8 mph - N/A   Clear
7:34 AM 36.7 °F 31.2 °F 26.4 °F 66% 30.15 in 10.0 mi SW 6.9 mph - N/A   Clear
7:54 AM 36.5 °F 31.8 °F 26.4 °F 67% 30.15 in 10.0 mi SW 5.8 mph - N/A   Clear
8:15 AM 36.5 °F 31.8 °F 26.6 °F 67% 30.15 in 10.0 mi SW 5.8 mph - N/A   Clear
8:34 AM 36.9 °F 33.1 °F 27.0 °F 67% 30.16 in 10.0 mi WSW 4.6 mph - N/A   Clear
8:55 AM 37.6 °F 35.1 °F 27.3 °F 66% 30.15 in 10.0 mi SW 3.5 mph - N/A   Clear
9:15 AM 38.8 °F 34.6 °F 27.5 °F 64% 30.15 in 10.0 mi WSW 5.8 mph - N/A   Clear
9:34 AM 40.3 °F 34.4 °F 28.0 °F 62% 30.16 in 10.0 mi WSW 9.2 mph - N/A   Clear
9:54 AM 41.0 °F 35.8 °F 28.4 °F 61% 30.16 in 10.0 mi WSW 8.1 mph - N/A   Clear
10:15 AM 41.9 °F 36.3 °F 28.4 °F 59% 30.16 in 10.0 mi WSW 9.2 mph - N/A   Clear
10:34 AM 42.3 °F 37.3 °F 28.4 °F 58% 30.16 in 10.0 mi WSW 8.1 mph - N/A   Clear
10:54 AM 43.3 °F 39.9 °F 29.1 °F 57% 30.15 in 10.0 mi WSW 5.8 mph 16.1 mph N/A   Clear
11:14 AM 43.9 °F 37.9 °F 28.9 °F 56% 30.15 in 10.0 mi WSW 11.5 mph - N/A   Clear
11:34 AM 44.8 °F 39.9 °F 29.1 °F 54% 30.14 in 10.0 mi SW 9.2 mph - N/A   Clear
11:55 AM 45.1 °F 40.3 °F 29.3 °F 54% 30.13 in 10.0 mi WSW 9.2 mph - N/A   Clear
12:15 PM 46.2 °F 43.3 °F 29.3 °F 52% 30.12 in 10.0 mi WSW 5.8 mph - N/A   Clear
12:34 PM 47.5 °F - 30.0 °F 51% 30.11 in 10.0 mi SW 8.1 mph - N/A   Clear
12:55 PM 48.0 °F - 29.7 °F 49% 30.10 in 10.0 mi SW 6.9 mph - N/A   Clear
1:15 PM 48.4 °F - 29.5 °F 48% 30.09 in 10.0 mi SW 5.8 mph 17.3 mph N/A   Clear
1:34 PM 49.1 °F - 30.2 °F 48% 30.08 in 10.0 mi SSW 5.8 mph - N/A   Clear
1:55 PM 49.3 °F - 30.0 °F 48% 30.07 in 10.0 mi SSW 6.9 mph - N/A   Clear
2:15 PM 49.6 °F - 29.8 °F 47% 30.07 in 10.0 mi SW 4.6 mph - N/A   Clear
2:34 PM 50.2 °F - 29.8 °F 46% 30.07 in 10.0 mi SW 6.9 mph - N/A   Clear
2:55 PM 50.4 °F - 28.9 °F 44% 30.07 in 10.0 mi SSW 10.4 mph 17.3 mph N/A   Clear
3:15 PM 49.6 °F - 27.7 °F 43% 30.07 in 10.0 mi SW 6.9 mph 19.6 mph N/A   Clear
3:34 PM 50.0 °F - 28.6 °F 44% 30.08 in 10.0 mi SSW 4.6 mph - N/A   Clear
3:54 PM 50.4 °F - 28.6 °F 43% 30.08 in 10.0 mi SSW 5.8 mph - N/A   Clear
4:15 PM 50.0 °F - 28.4 °F 43% 30.08 in 10.0 mi SW 6.9 mph - N/A   Clear
4:34 PM 49.1 °F - 28.4 °F 45% 30.09 in 10.0 mi SSW 5.8 mph - N/A   Clear
4:55 PM 48.2 °F - 29.1 °F 48% 30.08 in 10.0 mi SSW 4.6 mph - N/A   Clear
5:15 PM 47.5 °F - 28.9 °F 49% 30.07 in 10.0 mi SSW 5.8 mph - N/A   Clear
5:34 PM 46.0 °F 43.9 °F 29.3 °F 52% 30.07 in 10.0 mi SSW 4.6 mph - N/A   Clear
5:54 PM 45.9 °F 43.6 °F 29.7 °F 53% 30.07 in 10.0 mi SSW 4.6 mph - N/A   Clear
6:15 PM 45.1 °F 42.0 °F 29.7 °F 55% 30.07 in 10.0 mi SSW 5.8 mph - N/A   Clear
6:34 PM 45.0 °F 42.6 °F 29.3 °F 54% 30.08 in 10.0 mi SSW 4.6 mph - N/A   Clear
6:54 PM 44.6 °F 42.2 °F 29.3 °F 55% 30.08 in 10.0 mi SSW 4.6 mph - N/A   Clear
7:15 PM 44.1 °F 41.5 °F 29.3 °F 56% 30.08 in 10.0 mi SSW 4.6 mph - N/A   Clear
7:34 PM 44.2 °F 41.8 °F 29.5 °F 56% 30.08 in 10.0 mi SSW 4.6 mph - N/A   Clear
7:54 PM 44.1 °F 40.8 °F 29.7 °F 57% 30.07 in 10.0 mi SW 5.8 mph - N/A   Clear
8:14 PM 44.1 °F 41.5 °F 29.3 °F 56% 30.07 in 10.0 mi SW 4.6 mph - N/A   Clear
8:34 PM 43.9 °F 40.5 °F 29.1 °F 56% 30.07 in 10.0 mi South 5.8 mph - N/A   Clear
8:55 PM 43.5 °F 40.9 °F 28.8 °F 56% 30.07 in 10.0 mi SSW 4.6 mph - N/A   Clear
9:15 PM 42.8 °F 40.1 °F 28.4 °F 57% 30.06 in 10.0 mi SSW 4.6 mph - N/A   Clear
9:34 PM 42.4 °F 39.6 °F 28.2 °F 57% 30.04 in 10.0 mi SSW 4.6 mph - N/A   Clear
9:54 PM 42.1 °F 39.2 °F 28.2 °F 58% 30.03 in 10.0 mi SSW 4.6 mph - N/A   Clear
10:15 PM 41.7 °F - 28.2 °F 59% 30.03 in 10.0 mi Calm Calm - N/A   Clear
10:34 PM 41.9 °F - 27.9 °F 58% 30.02 in 10.0 mi Calm Calm - N/A   Clear
10:55 PM 41.2 °F 39.2 °F 27.5 °F 58% 30.01 in 10.0 mi South 3.5 mph - N/A   Clear
11:15 PM 41.2 °F 39.2 °F 27.5 °F 58% 30.00 in 10.0 mi SSW 3.5 mph - N/A   Clear
11:34 PM 41.2 °F 38.2 °F 27.5 °F 58% 30.00 in 10.0 mi SSW 4.6 mph - N/A   Clear
11:55 PM 41.4 °F 38.4 °F 27.3 °F 57% 29.99 in 10.0 mi SSW 4.6 mph - N/A   Clear